Probability
0 0 0 0 0 0 0 0 0 0 0 0 0 0 0 0 0 0 0 0 0 0 0 0 0 0 0 0 0 0 0 0 0 0 0 0 0 0 0 0 0 0 0
0 0 0 0 0 0 0 0 0 0 0 0 0 0 0 0 0 0 0 0 0 0 0 0 0 0 0 0 0 0 0 0 0 0 0 0 0 0 0 0 0 0 0
0 0 0 0 0 0 0 0 0 0 0 0 0 0 0 0 0 0 0 0 0 0 0 0 0 0 0 0 0 0 0 0 0 0 0 0 0 0 0 0 0 0 0
0 0 0 0 0 0 0 0 0 0 0 0 0 0 0 0 0 0 0 0 0 0 0 0 0 0 0 0 0 0 0 0 0 0 0 0 0 0 0 0 0 0 0
0 0 0 0 0 0 0 0 0 0 0 0 0 0 0 0 0 0 0 0 0 0 0 0 0 0 0 0 0 0 0 0 0 0 0 0 0 0 0 0 0 0 0
0 0 0 0 0 0 0 0 0 0 0 0 0 0 0 0 0 0 0 0 0 0 0 0 0 0 0 0 0 0 0 0 0 0 0 0 0 0 0 0 0 0 0
0 0 0 0 0 0 0 0 0 0 0 0 0 0 0 0 0 0 0 0 0 0 0 0 0 0 0 0 0 0 0 0 0 0 0 0 0 0 0 0 0 0 0
0 0 0 0 0 0 0 0 0 0 0 0 0 0 0 0 0 0 0 0 0 0 0 0 0 0 0 0 0 0 0 0 0 0 0 0 0 0 0 0 0 0 0
0 0 0 0 0 0 0 0 0 0 0 0 0 0 0 0 0 0 0 0 0 0 0 0 0 0 0 0 0 0 0 0 0 0 0 0 0 0 0 0 0 0 0
0 0 0 0 0 0 0 0 0 0 0 0 0 0 0 0 0 0 0 0 0 0 0 0 0 0 0 0 0 0 0 0 0 0 0 0 0 0 0 0 0 0 0
0 0 0 0 0 0 0 0 0 0 0 0 0 0 0 0 0 0 0 0 0 0 0 0 0 0 0 0 0 0 0 0 0 0 0 0 0 0 0 0 0 0 0
0 0 0 0 0 0 0 0 0 0 0 0 0 0 0 0 0 0 0 0 0 0 0 0 0 0 0 0 0 0 0 0 0 0 0 0 0 0 0 0 0 0 0
0 0 0 0 0 0 0 0 0 0 0 0 0 0 0 0 0 0 0 0 0 0 0 0 0 0 0 0 0 0 0 0 0 0 0 0 0 0 0 0 0 0 0
0 0 0 0 0 0 0 0 0 0 0 0 0 0 0 0 0 0 0 0 0 0 0 0 0 0 0 0 0 0 0 0 0 0 0 0 0 0 0 0 0 0 0
0 0 0 0 0 0 0 0 0 0 0 0 0 0 0 0 0 0 0 0 0 0 0 0 0 0 0 0 0 0 0 0 0 0 0 0 0 0 0 0 0 0 0
0 0 0 0 0 0 0 0 0 0 0 0 0 0 0 0 0 0 0 0 0 0 0 0 0 0 0 0 0 0 0 0 0 0 0 0 0 0 0 0 0 0 0
0 0 0 0 0 0 0 0 0 0 0 0 0 0 0 0 0 0 0 0 0 0 0 0 0 0 0 0 0 0 0 0 0 0 0 0 0 0 0 0 0 0 0
0 0 0 0 0 0 0 0 0 0 0 0 0 0 0 0 0 0 0 0 0 0 0 0 0 0 0 0 0 0 0 0 0 0 0 0 0 0 0 0 0 0 0
0 0 0 0 0 0 0 0 0 0 0 0 0 0 0 0 0 0 0 0 0 0 0 0 0 0 0 0 0 0 0 0 0 0 0 0 0 0 0 0 0 0 0
0 0 0 0 0 0 0 0 0 0 0 0 0 0 0 0 0 0 0 0 0 0 0 0 0 0 0 0 0 0 0 0 0 0 0 0 0 0 0 0 0 0 0
0 0 0 0 0 0 0 0 0 0 0 0 0 0 0 0 0 0 0 0 0 0 0 0 0 0 0 0 0 0 0 0 0 0 0 0 0 0 0 0 0 0 0
0 0 0 0 0 0 0 0 0 0 0 0 0 0 0 0 0 0 0 0 0 0 0 0 0 0 0 0 0 0 0 0 0 0 0 0 0 0 0 0 0 0 0
0 0 0 0 0 0 0 0 0 0 0 0 0 0 0 0 0 0 0 0 0 0 0 0 0 0 0 0 0 0 0 0 0 0 0 0 0 0 0 0 0 0 0
0 0 0 0 0 0 0 0 0 0 0 0 0 0 0 0 0 0 0 0 0 0 0 0 0 0 0 0 0 0 0 0 0 0 0 0 0 0 0 0 0 0 0
0 0 0 0 0 0 0 0 0 0 0 0 0 0 0 0 0 0 0 0 0 0 0 0 0 0 0 0 0 0 0 0 0 0 0 0 0 0 0 0 0 0 0
0 0 0 0 0 0 0 0 0 0 0 0 0 0 0 0 0 0 0 0 0 0 0 0 0 0 0 0 0 0 0 0 0 0 0 0 0 0 0 0 0 0 0
Wind_Speed
3 2 1 0 1 1 1 0 0 1 1 1 2 3 3 4 4 4 4 4 5 5 5 5 5 5 3 3 2 2 1 1 2 1 1 3 4 5 5 5 5 5 6
3 2 1 1 1 1 1 1 1 2 2 3 3 4 4 4 4 5 5 5 5 6 5 5 5 4 5 4 3 3 2 2 1 1 1 2 3 4 4 4 4 4 5
4 3 3 2 2 2 2 2 2 3 3 4 4 4 5 5 5 5 6 6 6 6 6 6 5 5 5 4 4 3 2 2 1 0 1 1 1 2 3 3 4 4 4
5 4 4 3 3 3 3 3 3 3 4 4 5 5 5 5 5 5 6 6 6 6 6 6 6 5 5 4 3 3 2 2 1 1 0 0 1 1 2 2 2 2 3
6 5 4 4 4 4 4 4 4 4 4 4 5 5 5 4 4 5 5 5 6 6 6 6 7 7 6 5 3 3 3 2 1 1 0 0 1 1 2 2 2 2 1
7 6 5 5 5 5 4 4 4 4 4 4 4 4 5 4 7 6 5 5 5 5 5 5 5 6 7 8 8 7 6 3 2 1 1 1 1 2 2 2 3 3 2
7 7 6 6 6 5 5 5 5 5 5 5 4 5 6 7 8 7 7 5 5 4 4 3 3 4 4 4 5 5 6 7 5 3 2 2 2 3 3 3 3 4 4
8 7 7 7 6 6 6 6 5 5 4 4 4 4 5 6 7 7 7 5 4 3 3 2 2 2 3 3 2 2 2 3 4 3 2 2 2 2 2 3 3 5 5
9 8 8 7 7 7 7 6 5 5 4 3 3 3 3 4 6 6 5 3 3 3 2 1 1 1 3 1 1 1 1 1 2 3 4 4 4 4 4 3 3 4 4
9 8 8 7 8 7 7 6 5 5 4 4 3 2 2 2 4 6 5 2 2 2 2 1 1 3 2 1 3 3 2 2 2 2 2 2 2 1 2 3 3 3 3
9 8 8 8 7 7 7 6 6 5 5 4 4 4 4 4 4 5 6 2 2 2 2 1 1 3 4 3 3 3 3 4 3 3 3 2 2 1 1 2 2 2 3
9 9 8 8 7 7 7 6 6 6 6 6 5 5 5 5 5 5 7 6 4 3 2 2 2 4 4 4 4 3 2 3 3 3 3 2 2 2 2 3 3 4 5
10 10 9 9 7 7 8 8 7 6 5 5 5 5 5 4 5 8 8 7 7 4 3 3 4 4 4 3 3 3 3 3 3 4 3 3 2 2 3 3 4 5 7
11 10 9 9 8 8 7 7 7 7 7 6 6 5 5 5 5 5 5 5 6 5 4 4 5 4 4 4 4 3 3 3 4 4 4 3 3 3 4 3 4 4 5
11 10 9 9 8 8 8 7 8 8 8 7 6 5 5 5 6 9 6 5 5 4 4 4 4 4 4 4 4 4 4 4 4 4 4 4 4 4 4 4 4 4 5
10 10 8 8 8 7 7 7 11 10 12 13 10 7 6 7 6 9 11 10 10 8 7 5 5 5 5 4 4 4 4 4 4 4 4 4 4 5 5 4 5 6 7
11 10 8 8 8 8 8 8 7 9 14 15 16 15 13 10 11 11 11 11 11 10 8 6 6 5 5 5 5 5 5 4 4 4 5 5 5 5 5 5 6 6 7
11 10 9 8 8 8 8 8 7 7 7 7 11 16 16 15 14 13 12 10 8 8 7 7 6 6 6 5 5 5 5 5 5 5 6 5 5 5 6 6 6 7 7
10 8 8 8 7 8 7 7 7 7 7 6 5 8 14 14 14 14 13 8 8 7 7 7 7 6 6 6 6 6 6 6 6 6 6 6 6 6 6 7 7 10 9
9 11 10 7 7 7 7 7 7 7 7 7 7 7 6 8 8 9 9 8 8 8 7 7 7 6 6 6 6 6 6 6 7 6 6 6 6 6 7 9 8 8 8
7 8 12 8 7 7 7 8 8 7 7 7 7 8 11 8 8 8 8 8 8 8 7 7 6 6 6 6 6 7 8 7 6 6 6 6 6 7 7 7 8 8 8
6 6 7 7 7 7 7 7 7 7 8 8 6 7 14 9 7 7 7 7 7 7 7 6 6 6 6 6 6 6 7 7 7 7 7 7 6 7 7 8 8 8 9
5 5 5 6 6 8 7 6 7 7 7 7 7 6 7 8 8 7 7 7 6 6 6 6 6 6 6 6 6 7 7 8 7 7 7 7 7 7 8 9 10 10 10
4 5 5 5 5 5 6 6 6 7 7 7 7 7 7 7 7 8 7 6 6 6 6 6 7 8 9 7 6 7 7 8 7 7 9 9 9 8 8 9 10 12 12
3 4 4 4 4 5 5 5 6 6 6 6 6 6 7 7 7 7 7 6 7 6 7 7 6 7 9 11 9 8 10 14 13 9 9 9 11 11 11 12 11 12 13
2 3 3 3 4 4 5 5 5 6 6 6 6 6 6 6 6 6 6 6 6 6 6 6 8 9 9 8 10 12 14 16 16 17 12 10 11 11 12 11 14 14 15
Wind_Direction
148 144 173 253 293 269 254 288 356 29 30 46 53 60 57 53 60 75 74 73 79 74 66 69 66 56 59 50 46 48 35 302 255 132 51 6 358 2 0 5 12 17 26
155 164 176 207 224 215 170 113 90 83 72 72 79 79 72 65 66 79 82 78 81 79 74 74 68 64 62 52 51 55 47 7 293 234 56 13 3 357 356 10 18 22 28
170 179 185 191 193 182 148 123 110 103 96 91 90 86 82 78 78 81 87 85 81 77 73 73 70 70 68 59 52 48 39 31 9 231 66 27 356 354 352 10 22 22 27
179 187 193 190 181 164 144 132 121 113 105 98 94 91 89 88 88 92 94 94 89 80 72 68 64 63 66 63 55 46 35 44 58 76 104 45 11 356 343 346 356 14 13
186 191 190 179 169 159 150 138 126 114 104 103 105 103 101 96 95 103 101 100 99 92 79 67 59 56 61 56 48 36 25 22 28 20 18 290 11 352 355 345 328 331 358
191 191 180 177 172 165 155 144 133 122 115 109 107 107 101 93 103 103 106 108 103 97 87 73 66 57 59 61 56 46 31 19 8 345 296 320 3 354 344 344 331 319 312
191 186 182 180 175 167 158 150 141 132 124 116 111 110 104 104 107 105 101 101 97 87 82 75 66 60 48 51 59 58 54 48 30 336 338 0 355 2 353 328 336 321 316
188 186 184 181 175 165 160 155 146 138 133 126 121 118 114 113 114 115 110 99 96 90 81 69 66 60 54 23 26 37 41 48 33 10 11 12 356 336 313 308 315 302 287
188 187 185 180 173 169 166 159 150 142 136 134 129 125 121 122 132 136 137 132 123 123 117 80 2 18 64 13 343 325 291 87 60 21 4 354 346 330 313 292 298 303 300
188 185 181 179 176 174 166 157 150 147 148 149 143 147 153 167 164 164 171 170 165 171 180 192 324 332 356 313 305 301 303 326 320 297 274 255 281 316 313 293 291 287 294
177 176 177 178 176 169 160 156 153 158 163 172 177 189 200 209 199 196 200 217 215 221 231 242 250 310 306 304 290 296 312 305 298 297 290 283 272 273 296 314 309 273 274
171 174 177 176 171 166 163 161 165 171 179 189 200 205 210 215 225 218 217 221 228 238 246 251 264 287 295 299 286 294 284 276 285 279 274 275 284 295 308 305 297 283 265
174 178 179 177 176 174 176 174 176 186 197 200 206 213 211 210 217 228 232 226 219 235 249 256 273 284 283 275 275 279 267 265 270 269 273 280 287 293 288 278 264 255 256
181 182 182 183 183 183 186 189 191 196 202 206 209 215 213 210 212 210 216 221 225 230 238 238 248 260 263 271 264 248 253 266 276 276 280 282 281 266 265 276 284 291 286
186 186 188 192 191 194 200 204 206 211 210 207 210 211 211 216 214 209 206 210 216 224 231 237 239 245 250 244 244 248 248 246 250 261 268 270 269 270 269 271 272 276 269
189 192 192 194 195 199 203 212 223 224 224 227 230 225 227 231 214 211 217 223 226 229 232 240 245 247 251 254 253 250 248 248 249 254 258 262 268 271 273 268 259 261 269
197 194 194 195 197 199 203 208 212 220 228 232 231 229 228 226 224 223 224 227 232 234 239 243 247 250 250 248 248 248 249 246 244 249 254 256 259 262 265 266 265 264 266
205 201 198 199 200 201 203 207 209 206 206 218 225 226 226 227 226 226 227 228 234 231 235 241 246 246 245 243 242 243 245 244 236 241 246 248 249 254 258 260 261 262 269
207 205 203 204 202 204 203 204 208 211 215 212 202 216 222 225 229 230 225 227 231 231 232 237 241 242 240 240 240 240 242 244 245 244 247 247 244 245 252 256 260 264 264
213 210 202 202 202 203 203 204 208 211 213 214 213 208 195 203 215 219 219 222 228 233 233 234 235 234 234 234 235 235 237 240 240 239 244 245 242 242 249 254 257 261 262
212 208 203 206 207 206 206 209 210 209 213 217 218 206 195 202 213 216 215 218 224 229 231 231 231 229 226 226 229 233 237 243 244 244 245 246 244 245 249 252 256 257 262
210 208 204 208 208 208 211 212 212 214 218 221 220 211 211 212 217 219 219 221 222 225 227 226 227 226 222 220 223 229 234 239 241 240 242 244 244 247 250 253 256 259 260
212 208 206 208 207 212 214 213 214 218 222 222 216 207 207 212 216 220 223 224 222 222 220 219 225 227 223 220 223 226 232 238 240 241 244 247 247 249 252 254 256 260 262
213 211 209 207 205 208 213 214 216 219 222 222 219 216 213 213 217 220 223 224 222 220 219 219 226 230 227 226 226 227 231 238 242 241 241 247 251 254 254 256 258 259 262
214 211 210 209 209 212 217 220 220 220 221 221 220 219 217 215 218 222 222 221 221 223 224 224 227 232 232 232 235 237 241 244 244 240 237 240 247 249 253 256 257 261 261
221 220 217 214 214 216 220 223 224 224 224 223 222 220 219 219 220 222 220 218 219 223 227 228 230 233 235 237 240 244 249 254 256 254 252 251 253 254 255 257 260 262 266